TimePDT,TemperatureF,Dew PointF,Humidity,Sea Level PressureIn,VisibilityMPH,Wind Direction,Wind SpeedMPH,Gust SpeedMPH,PrecipitationIn,Events,Conditions,WindDirDegrees,DateUTC
12:53 AM,84.0,52.0,33,29.90,10.0,Calm,Calm,-,N/A,,Clear,0,2013-08-30 07:53:00
1:53 AM,82.9,53.1,36,29.88,10.0,Calm,Calm,-,N/A,,Clear,0,2013-08-30 08:53:00
2:53 AM,82.9,48.0,29,29.88,10.0,Calm,Calm,-,N/A,,Clear,0,2013-08-30 09:53:00
3:53 AM,82.9,48.9,31,29.87,10.0,NW,3.5,-,N/A,,Clear,320,2013-08-30 10:53:00
4:53 AM,82.0,50.0,33,29.88,10.0,Calm,Calm,-,N/A,,Clear,0,2013-08-30 11:53:00
5:53 AM,81.0,52.0,36,29.89,10.0,Calm,Calm,-,N/A,,Clear,0,2013-08-30 12:53:00
6:53 AM,81.0,53.1,38,29.91,10.0,Calm,Calm,-,N/A,,Clear,0,2013-08-30 13:53:00
7:53 AM,86.0,51.1,30,29.93,10.0,Calm,Calm,-,N/A,,Clear,0,2013-08-30 14:53:00
8:53 AM,90.0,62.1,39,29.94,10.0,SE,8.1,-,N/A,,Clear,130,2013-08-30 15:53:00
9:53 AM,93.0,63.0,37,29.94,10.0,SE,6.9,-,N/A,,Clear,140,2013-08-30 16:53:00
10:53 AM,93.9,63.0,36,29.93,10.0,SSE,8.1,-,N/A,,Clear,160,2013-08-30 17:53:00
11:53 AM,95.0,63.0,34,29.93,10.0,Variable,6.9,-,N/A,,Clear,0,2013-08-30 18:53:00
12:53 PM,96.1,64.0,35,29.91,10.0,South,15.0,19.6,N/A,,Clear,180,2013-08-30 19:53:00
1:53 PM,96.1,64.0,35,29.90,10.0,South,12.7,18.4,N/A,,Clear,190,2013-08-30 20:53:00
2:53 PM,95.0,64.0,36,29.89,10.0,South,11.5,-,N/A,,Clear,190,2013-08-30 21:53:00
3:53 PM,96.1,64.0,35,29.88,10.0,SSE,12.7,-,N/A,,Clear,160,2013-08-30 22:53:00
4:53 PM,93.0,64.9,39,29.88,10.0,South,10.4,-,N/A,,Clear,190,2013-08-30 23:53:00
5:53 PM,91.9,64.9,41,29.89,10.0,South,8.1,-,N/A,,Clear,170,2013-08-31 00:53:00
6:53 PM,90.0,64.9,43,29.89,10.0,South,5.8,-,N/A,,Clear,180,2013-08-31 01:53:00
7:53 PM,89.1,64.9,45,29.90,10.0,South,4.6,-,N/A,,Clear,180,2013-08-31 02:53:00
8:53 PM,88.0,66.0,48,29.91,10.0,Calm,Calm,-,N/A,,Clear,0,2013-08-31 03:53:00
9:53 PM,88.0,66.0,48,29.92,10.0,South,3.5,-,N/A,,Clear,180,2013-08-31 04:53:00
10:53 PM,87.1,66.0,49,29.92,10.0,ESE,4.6,-,N/A,,Clear,120,2013-08-31 05:53:00
11:53 PM,86.0,66.0,51,29.92,10.0,SSE,3.5,-,N/A,,Clear,150,2013-08-31 06:53:00